#timestamp,LO_Frequency,Hit,StdDev 
1511262015.2,286047002.7,N
1511262035.1,286047001.5,N
1511262036.0,286047001.5,N
1511262055.8,286047002.6,N
1511262075.6,286047000.0,N
1511262095.5,286047001.0,N
1511262115.3,286046998.6,N
1511262135.2,286047001.1,N
1511262155.9,286046999.7,N
1511262175.7,286047001.0,N
1511262195.6,286047000.2,N
1511262215.4,286047000.0,N
1511262235.2,286047000.0,N
1511262255.1,286047001.4,N
1511262256.0,286047001.4,N
1511262275.8,286047003.9,Y
1511262295.7,286047002.6,P
1511262315.5,286047000.1,N
1511262335.3,286047002.7,N
1511262355.2,286047001.1,N
1511262375.0,286047001.1,N
1511262375.9,286047001.1,N
1511262395.8,286046998.6,N
1511262415.6,286046998.5,N
1511262435.4,286047000.5,N
1511262455.3,286047002.7,N
1511262475.1,286047000.8,N
1511262495.8,286047001.2,N
1511262515.7,286046998.7,N
1511262535.5,286046999.0,N
1511262555.4,286046998.4,N
1511262575.2,286046998.5,N
1511262595.0,286047000.3,N
1511262595.9,286047000.3,N
1511262615.8,286047002.5,N
1511262635.6,286046999.8,N
1511262655.5,286046999.9,N
1511262675.3,286047002.5,N
1511262695.1,286046999.7,N
1511262715.9,286047002.2,N
1511262735.7,286047001.5,N
1511262755.6,286047001.9,N
1511262775.4,286047002.6,N
1511262795.2,286047001.5,N
1511262815.1,286047001.8,N
1511262816.0,286047001.8,N
1511262835.8,286047001.6,N
1511262855.6,286047003.5,N
1511262875.5,286047004.4,Y
1511262895.3,286047002.1,P
1511262915.2,286047002.1,P
1511262935.0,286047000.4,N
1511262935.9,286047000.4,N
1511262955.7,286047002.5,Y
1511262975.6,286046999.7,P
1511262995.4,286047002.3,P
1511263015.3,286047000.2,N
1511263035.1,286047000.8,N
1511263055.8,286047000.7,N
1511263075.7,286046998.1,N
1511263095.5,286046998.2,N
1511263115.4,286046999.5,N
1511263135.2,286046999.4,N
1511263155.0,286046996.8,N
1511263155.9,286046996.8,N
1511263175.8,286046999.6,N
1511263195.6,286046997.0,N
1511263215.5,286046997.7,N
1511263235.3,286046999.6,N
1511263255.1,286046997.6,N
1511263275.9,286046995.1,Y
1511263295.7,286046999.1,P
1511263315.6,286046998.7,P
1511263335.4,286046999.4,P
1511263355.2,286046998.2,Y
1511263375.1,286047000.4,P
1511263376.0,286047000.4,N
1511263395.8,286047000.9,N
1511263415.7,286047000.3,N
1511263435.5,286047000.2,N
1511263455.3,286047002.8,Y
1511263475.2,286047002.4,P
1511263495.0,286047002.3,N
1511263495.9,286047002.3,N
1511263515.8,286047001.5,N
1511263535.6,286047002.5,N
1511263555.4,286047002.0,N
1511263575.3,286047001.6,N
1511263595.1,286047003.9,Y
1511263615.9,286047002.2,P
1511263635.7,286047001.2,P
1511263655.5,286046999.8,N
1511263675.4,286047000.4,N
1511263695.2,286046998.1,N
1511263715.0,286047000.7,N
1511263715.9,286047000.7,N
1511263735.8,286047000.8,N
1511263755.6,286046996.9,N
1511263775.5,286046997.2,N
1511263795.3,286046999.0,N
1511263815.1,286046999.2,N
1511263835.9,286047001.2,N
1511263855.7,286046999.0,N
1511263875.5,286046998.8,N
1511263895.4,286046998.5,N
1511263915.2,286046998.9,N
1511263935.1,286046999.0,N
1511263936.0,286046999.0,N
1511263955.8,286046998.9,N
1511263975.6,286047000.8,N
1511263995.5,286047001.2,N
1511264015.3,286046998.3,N
1511264035.1,286046999.0,N
1511264055.9,286046999.1,N
1511264075.7,286046999.3,N
1511264095.6,286046998.8,N
1511264115.4,286046996.8,N
1511264135.2,286046999.6,N
1511264155.1,286046998.4,N
1511264156.0,286046998.4,N
1511264175.8,286046998.8,N
1511264195.7,286046998.4,N
1511264215.5,286046999.4,N
1511264235.3,286046999.6,N
1511264255.2,286046998.4,N
1511264275.9,286046999.0,N
1511264295.7,286046997.9,N
1511264315.6,286046995.3,Y
1511264335.4,286046997.3,P
1511264355.3,286046997.1,P
1511264375.1,286046996.9,P
1511264376.0,286046996.9,Y
1511264395.8,286046998.9,P
1511264415.7,286046998.4,N
1511264435.5,286047000.9,N
1511264455.3,286047001.0,N
1511264475.2,286046999.4,N
1511264495.0,286046998.4,N
1511264495.9,286046998.4,N
1511264515.8,286047000.5,N
1511264535.6,286047002.4,N
1511264555.4,286047002.1,N
1511264575.3,286047001.8,N
1511264595.1,286047001.9,N
1511264615.8,286047001.3,N
1511264635.7,286047000.7,N
1511264655.5,286047000.6,N
1511264675.4,286046999.1,N
1511264695.2,286046998.4,N
1511264715.0,286046999.3,N
1511264715.9,286046999.3,N
1511264735.8,286046998.5,N
1511264755.6,286046999.2,N
1511264775.4,286046998.1,N
1511264795.3,286047000.1,N
1511264815.1,286047000.6,N
1511264835.9,286047000.6,N
1511264855.7,286047001.2,N
1511264875.5,286047000.8,N
1511264895.4,286047000.7,N
1511264915.2,286047000.6,N
1511264935.1,286047000.8,N
1511264936.0,286047000.8,N
1511264955.8,286047000.9,N
1511264975.6,286047001.2,N
1511264995.5,286047000.6,N
1511265015.3,286046998.7,N
1511265035.1,286046998.5,N
1511265055.9,286047000.8,N
1511265075.7,286046999.7,N
1511265095.6,286047002.4,N
1511265115.4,286047002.5,N
1511265135.2,286047001.6,N
1511265155.1,286047003.9,Y
1511265156.0,286047003.9,P
1511265175.8,286047004.0,N
1511265195.7,286047002.1,N
1511265215.5,286046999.8,N
1511265235.3,286047002.7,N
1511265255.2,286047001.5,N
1511265275.9,286047000.1,N
1511265295.7,286047000.7,N
1511265315.6,286047000.7,N
1511265335.4,286046998.3,N
1511265355.3,286046998.4,N
1511265375.1,286046998.5,N
1511265376.0,286046998.5,N
1511265395.8,286046999.2,N
1511265415.7,286046999.5,N
1511265435.5,286046999.6,N
1511265455.3,286047001.2,N
1511265475.2,286046998.7,N
1511265495.0,286046999.3,N
1511265495.9,286046999.3,N
1511265515.8,286046998.2,N
1511265535.6,286046998.2,N
1511265555.4,286046998.1,N
1511265575.3,286047000.5,N
1511265595.1,286046998.2,N
